Weather in Nizhnyaya Chigara

Russia / Tomsk District     58°34′27″N   81°47′11″E
temp.,
°C
wind,
m/s
gust,
m/s
humid.,
%
clouds,
%
prec.,
mm/h
press.,
hPa
HPBL,
m
26 february, fri
fri2601:00−28w11100100 0.3 101619
04:00−30wsw12100100 0.0 101819
07:00−30w229899 0.0 102021
10:00−32w249757 0.0 1022102
13:00−27w249352 0.0 1024384
16:00−25wsw3591100 0.0 1026562
19:00−26wsw2596100 0.1 1028263
22:00−27wsw249896 0.1 1029131
27 february, sat
sat2701:00−29wsw239892 0.1 103056
04:00−30wsw249899 0.0 1030108
07:00−32wsw239896 0.1 103161
10:00−32wsw259783 0.0 1032153
13:00−26sw249461 0.0 1033363
16:00−23sw259191 0.0 1033521
19:00−25sw239696 0.0 103335
22:00−27sw249898 0.0 103387
28 february, sun
sun2801:00−28sw259886 0.0 1034115
04:00−30sw239857 0.0 103450
07:00−31sw239829 0.0 103529
10:00−30ssw24970 0.0 1035128
13:00−24s249319 0.0 1034301
16:00−21se249392 0.0 1033397
19:00−24ese239894 0.0 103151
22:00−26ese369978 0.0 1030123
1 march, mon
mon101:00−27ese379877 0.0 1028133
04:00−27e399784 0.0 1025216
07:00−25e4119586 0.0 1023301
10:00−23e51295100 0.0 1021333
13:00−20e51095100 0.1 1019405
16:00−17e51093100 0.1 1017456
19:00−18ene51192100 0.1 1016491
22:00−18e51193100 0.1 1016510
2 march, tue
tue201:00−18e41095100 0.1 1015493
04:00−19ene4897100 0.3 1014411
07:00−20ene3797100 0.7 1014385
10:00−20e3697100 0.3 1013364
13:00−18e2394100 0.7 1014394
16:00−17e2392100 0.3 1014469
19:00−18e2298100 0.4 101542
22:00−20e229991 0.1 101549